This demonstration page uses our WeatherBlox Daily Observations layout. Learn more.

38.88101, -77.10428

Hourly Observations for August 20, 2017

Temp ( °F °C ) Dew Point ( °F °C ) Humidity (%) Winds ( mph kmh ) Pressure ( in mb ) Visibility ( mi km ) Precip ( " mm )
12:52 am 00:52 Mostly Clear 73 22.8 63 17.2 71 71 NNW 7 11 30 1016 10 16.0934 0 0
1:52 am 01:52 Partly Cloudy 74 23.3 62 16.7 67 67 NNW 6 9 30 1016 10 16.0934 0 0
2:52 am 02:52 Mostly Clear 72 22.2 62 16.7 71 71 NW 8 13 30.01 1016 10 16.0934 0 0
3:52 am 03:52 Clear 73 22.8 63 17.2 71 71 W 3 6 30.02 1017 10 16.0934 0 0
4:52 am 04:52 Clear 71 21.7 63 17.2 76 76 NW 5 7 30.03 1017 10 16.0934 0 0
5:52 am 05:52 Clear 71 21.7 62 16.7 73 73 NNW 8 13 30.05 1018 10 16.0934 0 0
6:52 am 06:52 Mostly Sunny 71 21.7 62 16.7 73 73 NNW 9 15 30.08 1019 10 16.0934 0 0
7:52 am 07:52 Mostly Sunny 73 22.8 63 17.2 71 71 NNW 7 11 30.1 1019 10 16.0934 0 0
8:52 am 08:52 Sunny 76 24.4 65 18.3 69 69 N 6 9 30.12 1020 10 16.0934 0 0
9:52 am 09:52 Sunny 79 26.1 63 17.2 58 58 VRB 6 9 30.13 1020 10 16.0934 0 0
10:52 am 10:52 Sunny 81 27.2 63 17.2 54 54 VRB 5 7 30.14 1021 10 16.0934 0 0
11:52 am 11:52 Sunny 83 28.3 63 17.2 51 51 NNE 7 11 30.14 1021 10 16.0934 0 0
12:52 pm 12:52 Mostly Sunny 84 28.9 59 15 43 43 NNW 7 11 30.14 1021 10 16.0934 0 0
1:52 pm 13:52 Sunny 86 30 58 14.4 39 39 N 12 19 30.14 1021 10 16.0934 0 0
2:52 pm 14:52 Sunny 87 30.6 62 16.7 43 43 N 6 9 30.11 1020 10 16.0934 0 0
3:52 pm 15:52 Mostly Sunny 87 30.6 61 16.1 42 42 N 10 17 30.11 1020 10 16.0934 0 0
4:52 pm 16:52 Mostly Sunny 87 30.6 63 17.2 45 45 N 10 17 30.11 1020 10 16.0934 0 0
5:52 pm 17:52 Sunny 86 30 64 17.8 48 48 N 8 13 30.1 1019 10 16.0934 0 0
6:52 pm 18:52 Sunny 85 29.4 64 17.8 50 50 N 6 9 30.11 1020 10 16.0934 0 0
7:52 pm 19:52 Sunny 84 28.9 62 16.7 48 48 Calm 30.12 1020 10 16.0934 0 0
8:52 pm 20:52 Clear 80 26.7 69 20.6 69 69 SE 8 13 30.15 1021 10 16.0934 0 0
9:52 pm 21:52 Clear 78 25.6 69 20.6 74 74 SSE 3 6 30.17 1022 10 16.0934 0 0
10:52 pm 22:52 Clear 77 25 69 20.6 77 77 SSE 6 9 30.19 1022 10 16.0934 0 0
11:52 pm 23:52 Mostly Clear 77 25 70 21.1 79 79 SE 5 7 30.19 1022 10 16.0934 0 0

Powered by AerisWeather